STARLINK-5604, 55420

Orbit data source: Space-Track

STARLINK-5604, 55420 is a payload satellite owned by SpaceX/Seattle (US) in LEO that was launched on Tue, 31 Jan 2023 UTC via an FALCON 9 launch vehicle from the Air Force Western Test Range (AFWTR). Payload-class satellites include a variety of spacecraft equipped with specific instruments for various scientific and technological missions. These include communications satellites like Starlink; space stations such as the ISS; scientific satellites like the Hubble; Earth observation satellites from companies like Planet Labs, Umbra, and HawkEye 360; GPS; miniature CubeSats for education and research; and military/defense satellites.

Loading next visibility...
Identifier
55420, 2023-014AF
Orbit
LEO
Country
Flag of USUS
Related business
Manufacturer
SpaceX/Seattle
Mission
Operational Commercial Communications
Bus & Motor
STARLINK, Unknown motor
Mass
305 kg wet, ~290 kg dry
Launch date (UTC)
2023-01-31 (3 years ago)
Launch vehicle
FALCON 9
Launch site
Air Force Western Test Range (AFWTR)
Object type
Payload
Rocket body
Debris
Shape & HBR
Box + 1 Pan, 10.1 m
Radar Cross Section
13.562 m², Large (>1 m²)

Expand to show TLE details & history
Last TLE update: 2 days ago

TLE from 2 days ago
0 STARLINK-5604
1 55420U 23014AF  26171.33574115 -.00000076  00000-0  14098-5 0  9993
2 55420  69.9992 145.6715 0003610 264.6984  95.3763 14.98329881187923
Epoch: 2026-06-20T08:03Z
TLE epoch observation values (Epoch: 2026-06-20T08:03:28.035Z)
Latitude
-0.00004°
Longitude
116.25284°
Altitude
574.716 km
Speed
7.574 km/s
True Right ascension
09h 42m 41s
True Declination
0° 00' 00"
Sunlit
Object was in daylight at epoch
Visualization orbit readout
Latitude
Unknown
Longitude
Unknown
Altitude
Unknown
Speed
Unknown
Apparent Right ascension
Unknown
Apparent Declination
Unknown
Sunlit
N/A
Visualization observer readout
Local Sidereal Time
21:32:18
Azimuth
Unknown
Elevation
Unknown
Doppler factor
Unknown
Orbital elements
Apogee altitude
572.513 km
Perigee altitude
567.496 km
Semi-major axis
6,948.142 km
Eccentricity
0.00036
Inclination
69.9992°
RAAN
145.6715°
Arg. of periapsis
264.6984°
True anomaly
95.41748°
Mean anomaly
95.3763°
Eccentric anomaly
95.39689°
Mean motion
3.74749 °/min
Orbital period
96.06 mins
BSTAR
0.0000014098
Loading maneuver chart data...
Computing Atmospheric mass density...

Documentation

Showing up to 5 results
|